Retour au catalogue

STARLINK-35794

ActifCommunicationsVLEO
NORAD 67085·PAYLOAD·🇺🇸 United States

Lancé Dec 14, 2025 depuis Vandenberg Space Force Base

Loading…

Prochains Passages (prochaines 24 heures)

TLE

FraisSource: CelesTrak SupGP

Époque: Sep 14, 2026, 21:18 UTC

1 67085C 25298L   26257.88798611  .00060985  00000+0  51105-2 0  2570
2 67085  69.9998 257.3987 0003698 264.9229 254.5891 14.98299940    19

Suivez STARLINK-35794 en temps réel avec AllMySat

Download on the App Store